RH
5 5 6 6 6 5 5 5 5 5 5 5 5 6 5 6 8 7 6 8 7 9 17 21 22 24 23 20 20 21 21 20 20 21 21 20 20 21 21 22 23 23 23 26 27 24 24 25 24 24 26 30 32 33 34 36 39 39 35 35 36 37 39 40 39 36 34 36 39 40 43 45 46 48 48 50 56 58 61 66 70 76 77 75 80 76 61
5 5 5 5 5 5 5 5 5 5 5 5 5 6 6 7 8 7 7 8 8 12 18 22 24 24 21 19 20 21 20 20 23 25 23 21 21 22 24 22 22 23 25 27 28 24 22 23 24 24 25 29 31 31 34 36 38 38 36 35 36 37 40 40 39 38 37 37 38 39 43 45 45 47 51 53 54 57 64 68 74 81 77 75 83 75 56
5 5 4 4 4 4 4 4 5 5 5 5 6 7 8 8 8 7 7 7 9 13 16 19 24 25 22 21 21 20 19 19 22 24 21 21 21 22 23 22 23 26 27 28 29 27 22 22 25 25 26 30 32 32 33 36 39 38 36 37 38 41 45 43 41 46 48 46 45 44 45 45 44 46 53 56 54 57 64 70 78 81 72 70 80 76 59
5 4 4 5 5 5 5 5 5 5 6 6 7 8 8 9 9 9 8 7 8 11 12 13 19 23 22 20 18 20 22 19 20 23 21 20 21 22 23 23 24 26 27 28 31 29 25 24 25 26 28 32 34 33 31 35 39 39 35 36 41 46 49 46 45 48 50 49 47 46 48 48 46 48 51 55 58 59 64 74 77 75 74 72 72 73 71
5 5 5 5 6 6 6 6 5 6 5 6 7 7 7 8 11 12 11 9 9 13 13 12 15 18 19 18 17 19 22 21 20 21 21 20 20 22 24 24 24 24 25 28 30 29 27 26 26 27 30 33 33 33 34 37 40 39 37 39 41 43 45 46 47 49 50 49 47 46 49 48 48 52 52 52 59 61 65 71 69 69 80 76 64 70 79
6 6 6 6 6 6 6 6 5 5 6 6 6 7 7 9 11 12 12 12 14 16 15 13 15 16 17 19 19 20 22 23 23 22 21 21 21 22 24 26 27 25 24 27 30 29 27 28 29 28 30 34 34 33 37 40 41 40 39 41 39 39 44 46 45 47 50 50 49 48 49 50 51 53 51 49 57 64 65 66 64 69 81 79 70 74 79
6 6 6 6 5 5 5 5 5 5 6 6 6 6 6 8 9 10 11 12 14 15 14 14 15 16 18 21 20 20 22 24 24 24 24 24 23 22 24 28 30 30 29 29 30 28 26 27 30 30 29 33 34 34 36 38 40 40 40 42 39 39 47 50 46 47 49 49 50 50 50 51 50 50 49 47 53 62 64 64 64 69 76 77 76 77 76
5 5 5 4 5 5 5 5 5 5 5 5 5 5 5 6 7 7 9 10 11 12 13 14 16 17 18 19 18 20 23 24 25 25 24 24 25 24 25 29 32 33 32 31 29 29 28 27 30 31 32 34 36 35 34 36 40 41 41 44 41 39 46 51 47 48 48 46 48 49 49 51 49 47 48 49 52 58 64 64 65 69 71 71 74 78 78
4 4 4 4 4 4 4 5 4 4 5 5 5 5 5 5 5 5 7 10 11 11 10 13 18 19 19 18 18 21 24 24 24 25 22 23 27 27 26 30 33 34 33 32 32 31 30 30 31 32 34 36 36 35 34 38 41 42 44 46 43 41 46 51 50 49 46 44 47 48 47 49 51 52 53 53 55 59 63 65 66 71 73 74 78 82 80
4 4 4 4 4 4 4 5 4 4 5 5 5 5 4 5 5 4 6 10 11 11 12 14 17 18 18 21 22 22 23 23 23 22 21 22 25 26 26 28 31 32 31 31 31 29 29 29 31 33 36 37 36 36 38 39 40 43 47 47 46 46 47 51 53 52 46 43 47 50 50 51 55 58 57 56 56 57 59 62 66 69 73 78 82 81 78
5 5 5 5 5 4 4 4 4 4 4 4 4 5 4 4 5 4 6 10 10 10 14 17 17 17 18 21 22 21 21 22 22 20 21 23 24 24 25 27 29 30 30 28 27 28 29 30 32 34 36 37 38 39 40 39 40 43 46 46 48 51 52 53 55 53 51 50 49 50 55 58 58 58 57 57 57 57 58 62 68 72 73 76 78 77 78
5 5 5 5 5 5 5 5 4 4 4 4 4 4 4 4 4 3 6 11 12 12 15 17 17 18 19 19 21 21 21 22 22 20 21 25 26 25 25 27 30 29 28 26 27 29 29 31 35 37 37 37 38 39 40 40 40 40 41 44 49 52 53 55 56 56 57 57 57 59 62 62 60 58 56 57 58 60 62 63 68 74 76 76 78 79 82
5 5 5 5 5 5 5 5 5 4 4 4 4 4 4 4 4 3 5 11 15 14 15 16 17 19 19 17 18 18 17 19 20 20 20 22 25 27 27 27 29 28 26 26 27 29 30 33 36 37 38 39 39 39 41 43 41 40 41 43 46 50 53 55 57 59 58 57 63 67 63 57 59 60 57 58 61 66 70 70 70 75 78 80 82 83 84
5 5 5 5 5 6 5 5 5 5 5 4 4 4 4 3 4 3 3 9 15 15 13 14 15 17 18 17 16 15 16 19 20 20 21 22 25 28 28 26 27 26 26 27 28 29 32 33 33 34 37 39 38 37 40 43 42 42 45 45 46 51 55 56 58 61 60 60 65 64 58 57 63 66 64 64 66 70 76 79 77 77 79 82 85 85 85
5 5 5 5 5 5 6 5 5 5 5 5 4 4 4 3 4 4 3 7 12 14 14 14 14 15 15 15 15 16 19 22 22 22 23 23 23 26 26 25 25 26 26 27 29 31 31 31 31 32 34 34 33 33 38 42 43 43 45 47 47 50 54 57 63 66 65 68 72 72 68 67 69 69 68 68 69 71 76 80 79 79 81 83 86 87 85
5 5 5 5 5 5 5 5 5 5 5 5 5 4 4 4 4 4 4 5 9 14 16 16 15 14 13 13 14 16 19 23 24 25 26 26 25 25 25 24 25 27 26 27 30 32 32 31 30 32 34 33 31 32 35 38 41 43 46 48 50 53 57 60 66 70 70 73 79 81 79 74 70 69 68 69 72 74 77 79 79 79 83 85 86 87 86
4 4 4 4 4 4 5 5 5 5 5 5 5 5 5 4 4 4 4 4 8 14 16 15 15 15 14 15 16 15 17 21 23 23 25 26 26 25 26 26 26 27 27 29 32 33 33 33 33 34 37 35 31 33 36 37 39 42 45 49 53 60 64 65 67 71 72 75 78 80 79 74 71 69 69 70 72 74 81 88 84 79 83 86 85 84 83
4 4 4 4 4 4 4 5 5 5 5 5 5 5 5 5 4 4 4 4 7 13 14 13 14 15 14 15 15 14 16 20 21 23 25 25 25 26 27 27 27 28 28 30 33 32 32 34 34 34 37 37 34 35 39 40 41 43 45 49 55 62 67 67 68 71 74 76 76 76 76 74 71 70 71 72 73 78 87 93 88 82 83 82 79 78 76
4 4 4 4 4 4 5 5 5 5 5 5 5 5 5 5 5 5 5 4 6 12 13 12 12 12 11 12 13 14 17 19 20 25 28 27 26 26 27 27 27 28 28 30 33 33 32 34 35 34 38 41 38 36 39 42 44 46 47 52 57 62 65 68 71 73 76 77 76 75 75 72 70 71 72 74 82 89 91 87 82 80 78 73 70 71 71
4 4 4 4 4 4 5 5 5 5 5 5 5 5 5 5 5 4 5 4 6 10 12 10 10 11 11 12 13 15 18 19 20 23 25 26 26 27 29 30 28 28 30 31 33 33 32 34 36 35 38 41 39 37 42 46 47 48 51 57 61 60 63 69 73 74 75 77 81 84 82 75 71 73 74 78 86 90 85 80 78 75 70 65 65 68 70
3 4 3 4 4 4 5 5 5 5 5 5 5 5 5 5 5 5 5 5 5 8 11 10 10 11 11 11 13 15 17 18 19 21 22 25 27 27 27 28 27 29 31 31 32 33 32 34 38 38 40 42 40 40 43 48 50 51 52 57 62 62 64 70 74 77 79 81 83 83 79 74 74 77 80 82 82 80 78 76 73 68 64 64 65 68 71
3 4 4 4 4 5 5 5 5 5 5 5 5 5 5 5 5 5 5 5 5 7 10 10 10 10 12 12 14 16 18 18 20 21 23 24 27 27 27 27 27 29 31 31 33 36 36 37 39 40 43 44 43 44 46 48 53 55 54 57 61 62 64 67 71 75 79 79 77 75 73 74 78 80 81 80 78 75 72 70 66 64 64 66 69 71 71
4 4 5 5 4 5 5 4 5 5 5 5 5 5 5 6 5 5 5 5 6 8 10 11 11 11 12 13 15 17 19 20 21 22 24 25 27 28 29 28 28 30 32 32 33 35 37 39 39 40 43 44 43 47 50 51 53 56 55 57 59 58 59 62 65 66 66 66 69 72 74 77 78 78 79 77 75 72 70 66 65 66 67 68 70 68 62
5 5 4 4 5 5 5 4 4 5 5 6 6 6 6 5 5 5 6 6 6 9 11 12 12 12 13 14 16 18 19 20 22 23 24 25 26 27 29 28 28 32 34 33 33 34 36 38 39 40 43 45 44 47 51 54 55 54 53 57 59 56 56 58 60 62 64 66 69 73 77 80 80 78 76 74 71 69 69 68 68 68 68 67 64 58 53
8 7 5 5 5 4 5 5 4 5 5 6 6 6 6 6 6 6 6 7 7 9 12 14 13 13 14 15 17 19 20 21 23 24 24 25 25 26 27 27 29 31 33 33 34 36 37 39 41 43 45 45 45 48 51 53 54 53 55 60 61 59 58 58 59 63 67 68 68 68 69 72 76 76 74 71 70 70 69 68 68 66 62 57 52 50 51
9 9 8 7 6 5 5 5 4 5 6 6 7 7 6 6 6 6 6 8 7 8 12 16 15 14 15 17 17 19 21 22 24 24 24 25 26 26 26 28 30 32 33 34 36 37 38 39 42 45 46 45 45 48 51 52 53 54 58 60 58 56 58 61 63 66 68 69 69 68 65 65 69 72 73 72 72 71 69 67 65 61 54 49 46 46 48
10 11 11 10 8 7 6 5 5 5 6 6 7 7 7 6 7 7 7 8 9 9 13 16 15 15 16 17 18 20 21 23 24 25 25 25 26 26 26 28 31 33 34 37 37 38 39 41 43 44 45 46 47 48 50 51 53 57 59 57 54 55 58 63 68 73 75 75 76 77 77 75 74 74 74 73 72 71 68 65 61 55 51 49 46 40 36
11 12 12 12 10 9 8 6 5 5 6 7 7 7 8 7 8 8 8 8 9 10 12 14 15 16 17 17 18 20 22 23 24 24 25 25 26 26 27 28 30 32 35 37 38 39 41 43 45 45 45 47 50 51 51 53 56 59 60 57 55 57 62 67 73 78 79 77 77 78 81 80 78 76 75 73 72 70 67 62 58 53 49 45 39 33 29
10 11 12 11 10 9 8 6 6 5 6 7 8 8 9 8 9 9 9 9 9 10 12 15 17 17 17 17 18 21 23 24 25 25 25 26 26 26 27 29 30 32 34 36 38 40 42 43 45 46 46 48 52 54 54 57 59 60 58 56 56 60 66 71 73 75 75 75 75 76 78 78 77 77 77 75 73 69 65 61 57 51 42 34 30 28 29
10 10 11 10 10 9 7 6 6 7 8 9 9 10 10 10 10 10 9 10 11 11 12 16 19 18 16 17 20 22 24 25 25 26 26 26 27 27 28 29 31 33 35 37 39 40 43 45 47 48 49 49 52 56 57 59 61 60 56 54 57 62 68 71 72 73 73 73 74 76 77 76 76 76 75 73 71 67 64 61 54 43 33 29 28 29 30
10 10 10 11 11 10 9 9 9 10 11 12 12 12 11 11 12 11 10 11 12 12 12 15 18 18 17 18 20 23 24 25 26 26 27 27 28 28 29 30 31 32 35 38 39 41 43 45 47 49 50 49 52 57 59 61 63 62 56 53 58 64 68 69 71 72 70 69 69 70 73 74 74 73 72 72 70 67 63 56 45 35 30 29 29 29 30
10 9 10 11 11 11 10 10 11 12 14 14 14 14 14 13 12 11 10 11 12 12 13 16 18 19 18 20 22 23 24 26 26 27 27 28 28 29 30 30 30 32 34 37 40 41 43 45 47 49 50 49 51 56 61 62 62 58 53 53 59 66 68 69 69 69 69 68 67 67 69 71 74 75 75 73 71 66 58 47 38 33 30 28 27 27 28
11 10 10 11 12 12 12 12 13 15 16 16 16 15 14 12 11 11 12 12 12 13 13 15 18 19 19 20 23 25 25 26 27 27 28 29 29 29 30 31 32 32 34 36 39 40 43 45 46 48 49 48 50 56 61 62 58 54 52 55 61 66 68 69 68 66 66 68 69 71 73 74 76 77 77 74 70 62 51 42 37 33 29 26 27 27 28
14 14 14 14 13 14 14 15 16 17 17 17 16 15 13 12 11 12 13 13 13 13 13 15 19 23 23 23 26 27 26 26 28 28 28 29 30 29 30 31 33 33 33 36 38 41 43 43 44 48 50 49 51 58 61 59 55 52 52 57 62 65 66 66 65 64 65 67 70 73 76 77 78 77 76 72 66 56 45 39 36 33 29 28 28 28 29
18 17 16 16 15 15 16 17 18 18 18 17 16 14 13 13 12 12 13 13 13 14 14 15 19 25 28 29 31 30 27 26 29 29 28 30 31 30 29 31 33 34 34 36 38 41 43 43 45 50 52 51 55 62 61 56 54 52 53 58 61 63 64 64 62 61 65 68 71 74 77 79 79 77 74 69 59 49 42 39 36 33 31 29 29 29 31
21 20 19 18 17 17 18 19 19 18 17 17 16 14 14 14 13 13 14 13 13 14 15 17 21 26 28 30 31 29 27 28 29 29 29 31 32 31 30 32 35 35 34 36 38 40 42 42 46 51 53 53 57 60 57 54 54 53 54 59 62 63 65 64 61 62 66 68 70 73 75 75 74 72 69 62 53 46 43 40 36 33 33 33 31 31 33
22 22 22 21 20 19 20 20 20 18 18 17 16 15 15 15 14 14 14 13 14 15 15 18 24 27 27 29 30 29 28 30 30 30 31 33 32 31 32 34 36 35 35 37 38 38 40 43 47 52 54 53 54 55 55 55 54 53 56 61 63 65 66 64 61 63 66 66 66 69 70 70 71 69 65 57 50 46 44 40 37 36 36 34 31 31 32
21 22 23 23 22 21 20 20 20 19 19 18 17 16 15 15 15 15 15 15 16 16 17 20 25 27 28 31 32 30 30 31 31 31 33 33 32 32 33 34 35 35 37 40 39 37 40 46 50 52 53 52 52 53 55 55 54 55 59 63 65 67 68 66 65 68 71 70 71 73 74 74 73 68 62 55 49 44 40 36 34 32 29 27 27 29 29
22 21 22 23 22 21 20 20 21 20 19 18 18 16 16 15 15 16 16 17 18 19 21 24 26 28 30 32 32 31 31 32 34 35 35 34 33 32 33 35 35 34 37 40 39 36 40 47 50 52 52 52 52 54 55 54 55 58 62 65 68 70 69 67 68 74 77 78 80 81 81 79 75 68 60 52 44 36 31 28 26 24 21 21 23 25 24
23 22 22 23 22 21 20 20 21 21 20 19 18 17 16 16 16 17 19 22 23 23 24 26 28 29 30 32 33 34 33 33 35 37 37 36 35 33 34 35 34 35 38 40 37 37 41 44 48 52 53 52 52 54 55 55 57 61 64 67 70 71 69 68 71 75 75 74 74 75 74 71 68 63 56 47 37 31 27 25 22 20 18 18 19 19 18
24 24 23 23 23 22 20 20 20 20 19 18 17 17 18 19 20 21 23 27 28 27 27 27 28 29 31 32 34 34 34 34 35 37 38 39 37 34 35 35 34 35 39 39 37 39 44 45 48 53 54 51 52 54 55 56 59 62 65 67 69 69 68 69 72 74 71 68 67 68 67 65 61 54 45 37 31 29 27 24 21 19 17 15 15 15 15
26 24 24 24 24 23 21 20 19 19 18 18 18 20 22 24 24 25 26 27 28 28 28 28 29 30 31 32 33 33 34 35 36 37 39 40 36 34 37 38 35 36 38 38 38 41 44 45 49 54 53 51 53 55 54 56 60 62 64 67 68 67 67 69 72 71 68 66 67 67 66 62 54 43 35 31 29 28 26 24 21 19 17 15 14 14 14
26 25 25 25 26 24 22 21 19 19 21 22 22 23 27 29 30 30 30 29 28 29 29 29 29 30 31 32 33 34 35 35 35 36 38 37 35 35 39 39 37 36 37 38 40 43 45 46 51 54 51 50 52 54 55 57 61 62 64 67 67 65 67 70 71 69 66 66 67 67 64 56 46 36 31 30 29 27 26 24 21 19 17 15 14 13 13
27 26 26 26 26 25 24 23 21 21 24 27 27 28 29 31 33 34 33 31 30 30 30 29 30 31 33 33 34 35 36 36 37 36 36 35 36 38 39 38 37 37 38 40 43 45 46 46 48 50 49 50 52 53 55 58 61 62 65 66 65 65 68 69 67 64 63 65 66 64 59 50 40 34 31 30 29 27 26 25 22 20 18 16 14 13 13
27 27 26 27 27 26 25 25 26 25 26 29 33 34 33 33 35 36 33 30 29 30 30 30 31 33 34 35 35 35 37 37 37 37 36 36 38 39 39 38 39 39 40 43 44 45 46 47 46 46 48 50 50 51 56 59 61 63 65 64 64 66 67 66 63 61 62 65 65 61 54 46 38 34 32 30 29 29 27 25 23 20 18 16 14 13 13
27 27 26 27 28 28 27 29 30 30 29 31 34 35 34 33 33 33 31 29 29 29 30 31 33 35 35 35 36 36 37 37 37 38 38 37 38 39 38 37 38 39 41 44 45 46 49 50 47 46 48 49 49 52 57 61 62 64 64 64 64 66 66 63 60 60 62 64 63 58 52 44 37 34 32 31 30 29 28 26 24 22 19 17 15 13 13
28 27 27 28 30 30 30 31 31 30 30 31 31 32 32 31 30 29 29 29 29 30 31 33 35 37 38 37 37 38 38 38 38 39 39 39 40 40 39 38 40 41 41 43 47 52 53 49 45 46 48 49 49 53 58 61 63 63 63 63 65 65 64 61 59 59 62 63 60 55 50 43 37 33 32 31 30 30 29 27 25 22 20 18 16 14 13
28 27 27 29 31 31 32 32 31 31 31 32 31 31 30 30 30 30 29 30 30 32 34 35 37 39 40 39 38 39 40 38 38 39 40 40 40 41 41 41 43 44 44 46 51 55 52 45 44 48 49 48 50 55 59 61 62 63 62 63 64 64 61 58 58 59 61 60 56 52 49 42 36 33 32 31 30 30 29 28 26 23 21 19 16 15 14
29 28 29 30 31 32 32 32 32 32 32 32 32 32 32 31 31 30 30 31 32 34 36 37 38 40 41 39 39 42 42 40 39 42 44 43 44 45 45 44 45 48 50 50 50 48 45 44 46 49 49 49 52 57 60 62 63 62 62 62 63 62 59 57 57 59 60 58 54 51 47 41 36 33 33 32 31 31 30 29 26 24 22 20 17 16 14
30 30 31 31 32 33 33 34 36 36 36 35 34 33 32 31 30 30 31 32 33 35 37 38 40 41 41 41 43 44 44 43 44 46 46 47 47 47 45 46 49 53 54 50 46 44 45 46 48 49 50 50 53 58 60 62 63 62 62 62 62 60 57 56 57 59 59 55 52 50 47 41 36 34 33 32 31 32 31 30 28 25 23 21 19 17 15
32 31 32 32 33 33 34 35 37 37 37 36 35 33 32 31 31 31 32 32 33 36 37 39 41 42 43 45 46 45 43 45 48 49 49 49 50 50 51 53 55 55 52 47 45 45 47 48 49 50 51 52 55 59 61 62 62 62 62 62 60 58 57 56 59 60 58 53 51 50 47 41 36 34 33 32 32 32 31 30 28 26 23 21 19 17 16
35 34 33 33 33 32 33 34 35 35 35 35 34 33 33 33 32 32 32 33 35 37 38 39 41 44 46 46 46 46 47 48 50 50 50 51 52 53 55 56 54 50 48 47 46 47 48 49 50 51 52 53 56 60 62 62 63 64 63 62 60 58 57 57 59 60 56 52 50 50 47 41 37 35 34 33 33 32 32 30 29 26 24 22 20 18 17